User: anonymous   Login
Location: Hurstbourne Priors
(51.2000°N, 1.3667°W)
Time: 01:18:04
(UTC+00:00)
Language:

A-11 Canister half - Orbit

View from above orbital plane
View from above orbital plane
View from above satellite
View from above satellite

Ground track
Ground track

The orbit data is extracted from the following two-line orbital elements,

1    53U 60009E   21110.79601417 -.00000133  00000-0 -48686-3 0  9997
2    53  47.2792  31.1867 0098816 270.3855  88.5611 12.17254852706008
Epoch (UTC): 20 April 2021 19:06:15
Eccentricity: 0.0098816
inclination: 47.2792°
perigee height: 1525 km
apogee height: 1683 km
right ascension of ascending node: 31.1867°
argument of perigee: 270.3855°
revolutions per day: 12.17254852
mean anomaly at epoch: 88.5611°
orbit number at epoch: 70600

The dashed part of the orbit path shows where the satellite is in the earth's shadow,  

DLR